EW6358 Weather Reports


Display with metric or nautical units.
time (UTC)temp
F
wind
direction
speed
MPH
gust
MPH
rain 1hr
in
rain 24hr
in
rain mn
in
humidity
%
barometer
mb
20190215195017 63 254 2.0 6.0 0.00 0.00 0.00 88 1010.7
20190215194551 63 199 0.0 0.0 0.00 0.00 0.00 87 1010.7
20190215194017 63 202 0.0 0.0 0.00 0.00 0.00 87 1010.9
20190215193520 64 142 0.0 0.0 0.00 0.00 0.00 86 1010.9
20190215193033 64 191 0.0 0.0 0.00 0.00 0.00 86 1010.9
20190215192515 64 202 0.0 0.0 0.00 0.00 0.00 86 1011.1
20190215192015 64 202 0.0 0.0 0.00 0.00 0.00 86 1011.1
20190215191522 63 227 0.0 0.0 0.00 0.00 0.00 86 1011.1
20190215191013 64 240 0.0 0.0 0.00 0.00 0.00 87 1011.2
20190215190515 63 242 0.0 0.0 0.00 0.00 0.00 87 1011.1
20190215190019 63 234 0.0 0.0 0.00 0.00 0.00 88 1011.0
20190215185511 63 243 0.0 0.0 0.00 0.00 0.00 88 1011.3
20190215185009 63 247 0.0 0.0 0.00 0.00 0.00 89 1011.6
20190215184511 62 243 0.0 6.0 0.00 0.00 0.00 89 1011.6
20190215184010 62 251 0.0 6.0 0.00 0.00 0.00 90 1011.8
20190215183510 62 228 0.0 3.0 0.00 0.00 0.00 90 1011.8
20190215183047 62 251 1.0 4.0 0.00 0.00 0.00 90 1011.9
20190215182505 62 252 0.0 5.0 0.00 0.00 0.00 91 1012.0
20190215182004 61 254 2.0 5.0 0.00 0.00 0.00 91 1012.1
20190215181502 61 236 0.0 3.0 0.00 0.00 0.00 91 1012.2
20190215181004 61 235 0.0 4.0 0.00 0.00 0.00 92 1012.3
20190215180606 61 213 0.0 4.0 0.00 0.00 0.00 92 1012.4
20190215180244 61 225 2.0 4.0 0.00 0.00 0.00 92 1012.6
20190215175559 60 244 1.0 6.0 0.00 0.00 0.00 92 1012.4
20190215175101 60 234 1.0 6.0 0.00 0.00 0.00 92 1012.4
20190215174627 60 223 3.0 6.0 0.00 0.00 0.00 92 1012.6
20190215174058 60 248 0.0 4.0 0.00 0.00 0.00 92 1012.8
20190215173601 60 253 2.0 7.0 0.00 0.00 0.00 92 1012.9
20190215173129 60 242 3.0 7.0 0.00 0.00 0.00 92 1013.2
20190215172559 60 273 0.0 5.0 0.00 0.00 0.00 92 1013.4
20190215172058 60 215 0.0 5.0 0.00 0.00 0.00 91 1013.3
20190215171719 60 224 0.0 7.0 0.00 0.00 0.00 91 1013.4
20190215171059 60 248 3.0 7.0 0.00 0.00 0.00 91 1013.5
20190215170559 60 238 0.0 0.0 0.00 0.00 0.00 91 1013.5
20190215170207 60 241 0.0 4.0 0.00 0.00 0.00 91 1013.7
20190215165556 60 257 1.0 5.0 0.00 0.00 0.00 91 1013.8
20190215165057 60 238 2.0 7.0 0.00 0.00 0.00 90 1013.9
20190215164721 60 203 3.0 9.0 0.00 0.00 0.00 90 1013.8
20190215164056 60 240 4.0 9.0 0.00 0.00 0.00 89 1013.9
20190215163556 60 254 0.0 8.0 0.00 0.00 0.00 90 1013.9
20190215163300 60 261 2.0 8.0 0.00 0.00 0.00 90 1013.7
20190215162556 60 244 3.0 10.0 0.00 0.00 0.00 90 1014.0
20190215162055 60 260 2.0 8.0 0.00 0.00 0.00 90 1013.9
20190215161720 60 251 4.0 8.0 0.00 0.00 0.00 90 1013.7
20190215161051 60 223 3.0 7.0 0.00 0.00 0.00 90 1013.7
20190215160550 59 261 2.0 8.0 0.00 0.00 0.00 90 1013.6
20190215160215 59 223 2.0 9.0 0.00 0.00 0.00 91 1013.6
20190215155548 59 231 3.0 9.0 0.00 0.00 0.00 91 1013.9
20190215155048 59 255 3.0 7.0 0.00 0.00 0.00 91 1013.8
20190215154636 59 246 3.0 6.0 0.00 0.00 0.00 91 1013.9
20190215154046 59 233 2.0 6.0 0.00 0.00 0.00 91 1013.9
20190215153544 59 277 0.0 6.0 0.00 0.00 0.00 91 1014.0
20190215153137 58 254 3.0 8.0 0.00 0.00 0.00 91 1013.8
20190215152543 58 261 3.0 8.0 0.00 0.00 0.00 92 1013.7
20190215152041 58 253 1.0 4.0 0.00 0.00 0.00 92 1013.6
20190215151623 58 265 1.0 7.0 0.00 0.00 0.00 92 1013.5
20190215151040 58 235 1.0 7.0 0.00 0.00 0.00 92 1013.5
20190215150540 57 240 1.0 4.0 0.00 0.00 0.00 92 1013.5
20190215150111 57 263 0.0 6.0 0.00 0.00 0.00 92 1013.5
20190215145538 57 200 0.0 0.0 0.00 0.00 0.00 92 1013.5
20190215145037 57 212 0.0 0.0 0.00 0.00 0.00 92 1013.3
20190215144643 57 216 0.0 0.0 0.00 0.00 0.00 92 1013.4
20190215144036 57 211 0.0 0.0 0.00 0.00 0.00 92 1013.5
20190215143536 57 250 0.0 0.0 0.00 0.00 0.00 92 1013.5
20190215143115 56 254 0.0 0.0 0.00 0.00 0.00 92 1013.5
20190215142536 56 254 0.0 0.0 0.00 0.00 0.00 92 1013.6
20190215142035 56 254 0.0 0.0 0.00 0.00 0.00 92 1013.5
20190215141545 56 254 0.0 0.0 0.00 0.00 0.00 92 1013.7
20190215141031 56 225 0.0 0.0 0.00 0.00 0.00 92 1013.3
20190215140044 56 161 0.0 0.0 0.00 0.00 0.00 92 1013.1
20190215135530 56 167 0.0 0.0 0.00 0.00 0.00 92 1013.0
20190215135027 56 223 0.0 0.0 0.00 0.00 0.00 92 1013.3
20190215134544 56 223 0.0 0.0 0.00 0.00 0.00 92 1013.5
20190215134029 56 226 0.0 0.0 0.00 0.00 0.00 92 1013.4
20190215133530 56 238 0.0 1.0 0.00 0.00 0.00 92 1013.4
20190215133058 56 238 0.0 1.0 0.00 0.00 0.00 92 1013.3
20190215132526 56 238 0.0 3.0 0.00 0.00 0.00 92 1013.1
20190215132027 56 238 0.0 4.0 0.00 0.00 0.00 91 1013.2
20190215131605 56 194 0.0 4.0 0.00 0.00 0.00 91 1013.1
20190215131028 56 207 1.0 3.0 0.00 0.00 0.00 91 1013.4
20190215130525 56 182 0.0 3.0 0.00 0.00 0.00 91 1013.2
20190215130139 56 182 0.0 3.0 0.00 0.00 0.00 91 1013.2
20190215125525 56 205 0.0 0.0 0.00 0.00 0.00 91 1013.1
20190215125024 56 207 0.0 0.0 0.00 0.00 0.00 91 1013.0
20190215124551 55 203 0.0 0.0 0.00 0.00 0.00 91 1012.9
20190215124023 55 223 0.0 4.0 0.00 0.00 0.00 91 1012.8
20190215123525 55 231 0.0 5.0 0.00 0.00 0.00 91 1012.9
20190215123046 55 240 1.0 5.0 0.00 0.00 0.00 91 1012.9
20190215122526 55 199 0.0 5.0 0.00 0.00 0.00 91 1012.8
20190215122023 55 207 2.0 5.0 0.00 0.00 0.00 91 1012.8
20190215121540 55 233 0.0 6.0 0.00 0.00 0.00 91 1012.9
20190215121025 55 240 3.0 8.0 0.00 0.00 0.00 90 1012.9
20190215120524 56 242 3.0 8.0 0.00 0.00 0.00 91 1012.9
20190215120053 55 186 0.0 4.0 0.00 0.00 0.00 90 1012.9
20190215115521 55 220 1.0 8.0 0.00 0.00 0.00 90 1012.9
20190215115026 55 244 2.0 6.0 0.00 0.00 0.00 90 1012.8
20190215114602 55 229 1.0 6.0 0.00 0.00 0.00 90 1012.7
20190215114022 55 215 0.0 7.0 0.00 0.00 0.00 90 1012.7
20190215113520 55 207 1.0 6.0 0.00 0.00 0.00 90 1012.7
20190215113043 55 221 3.0 6.0 0.00 0.00 0.00 90 1012.6
20190215112524 55 241 1.0 6.0 0.00 0.00 0.00 90 1012.5
20190215112026 55 223 0.0 0.0 0.00 0.00 0.00 90 1012.4
20190215111522 55 228 0.0 0.0 0.00 0.00 0.00 90 1012.5
20190215111023 55 239 0.0 0.0 0.00 0.00 0.00 90 1012.2
20190215110519 55 218 0.0 0.0 0.00 0.00 0.00 90 1012.2
20190215110032 55 217 0.0 0.0 0.00 0.00 0.00 90 1012.5
20190215105520 55 221 0.0 0.0 0.00 0.00 0.00 90 1012.4
20190215105016 55 183 0.0 0.0 0.00 0.00 0.00 90 1012.7
20190215104523 55 230 0.0 3.0 0.00 0.00 0.00 90 1012.8
20190215104015 55 227 0.0 3.0 0.00 0.00 0.00 90 1012.9
20190215103517 55 256 0.0 5.0 0.00 0.00 0.00 90 1013.0
20190215103047 55 211 1.0 5.0 0.00 0.00 0.00 90 1012.9
20190215102515 55 203 1.0 4.0 0.00 0.00 0.00 90 1012.9
20190215102016 55 236 1.0 5.0 0.00 0.00 0.00 90 1012.8
20190215101526 55 231 1.0 5.0 0.00 0.00 0.00 90 1012.8
20190215101019 55 235 0.0 4.0 0.00 0.00 0.00 90 1012.8
20190215100517 55 230 0.0 0.0 0.00 0.00 0.00 90 1012.8
20190215100024 55 271 0.0 0.0 0.00 0.00 0.00 90 1012.9
20190215095518 55 263 0.0 0.0 0.00 0.00 0.00 90 1012.9
20190215095016 55 202 0.0 0.0 0.00 0.00 0.00 90 1012.8
20190215094521 55 211 0.0 3.0 0.00 0.00 0.00 89 1013.0
20190215094013 55 190 0.0 6.0 0.00 0.00 0.00 89 1013.1
20190215093517 55 213 1.0 6.0 0.00 0.00 0.00 89 1013.2
20190215093014 55 212 0.0 4.0 0.00 0.00 0.00 89 1013.3
20190215092510 55 214 0.0 0.0 0.00 0.00 0.00 90 1013.3
20190215092011 55 205 0.0 0.0 0.00 0.00 0.00 90 1013.1
20190215091533 54 185 0.0 0.0 0.00 0.00 0.00 89 1013.1
20190215091009 54 219 0.0 0.0 0.00 0.00 0.00 89 1013.2
20190215090509 54 202 0.0 0.0 0.00 0.00 0.00 89 1013.2
20190215090027 54 193 0.0 0.0 0.00 0.00 0.00 89 1013.0
20190215085508 54 120 0.0 0.0 0.00 0.00 0.00 89 1013.2
20190215085007 54 216 0.0 4.0 0.00 0.00 0.00 89 1013.4
20190215084511 54 180 0.0 6.0 0.00 0.00 0.00 89 1013.6
20190215084008 55 188 1.0 6.0 0.00 0.00 0.00 89 1013.7
20190215083512 55 179 2.0 5.0 0.00 0.00 0.00 89 1013.7
20190215083011 54 196 1.0 7.0 0.00 0.00 0.00 89 1013.8
20190215082507 54 196 2.0 7.0 0.00 0.00 0.00 89 1013.7
20190215082006 54 181 1.0 7.0 0.00 0.00 0.00 89 1014.0
20190215081508 54 240 1.0 5.0 0.00 0.00 0.00 89 1014.0
20190215081005 54 269 2.0 7.0 0.00 0.00 0.00 88 1013.9
20190215080509 54 188 3.0 7.0 0.00 0.00 0.00 88 1013.8
20190215080033 55 204 3.0 10.0 0.00 0.00 0.00 88 1013.9
20190215075508 55 202 2.0 10.0 0.00 0.00 0.00 88 1013.5
20190215075004 54 220 4.0 8.0 0.00 0.00 0.00 88 1013.5
20190215074518 54 211 3.0 9.0 0.00 0.00 0.00 88 1013.7
20190215074002 54 214 3.0 9.0 0.00 0.00 0.00 88 1013.7
20190215073502 54 184 3.0 7.0 0.00 0.00 0.00 88 1013.8
20190215073121 54 234 2.0 8.0 0.00 0.00 0.00 88 1013.9
20190215072600 54 257 1.0 8.0 0.00 0.00 0.00 88 1014.1
20190215072059 54 169 2.0 7.0 0.00 0.00 0.00 88 1014.1
20190215071719 54 227 3.0 7.0 0.00 0.00 0.00 87 1014.1
20190215071103 54 219 2.0 7.0 0.00 0.00 0.00 87 1014.4
20190215070559 54 134 3.0 7.0 0.00 0.00 0.00 87 1014.4
20190215070203 54 100 2.0 9.0 0.00 0.00 0.00 87 1014.4
20190215065557 54 242 3.0 9.0 0.00 0.00 0.00 87 1014.5
20190215065056 54 190 3.0 9.0 0.00 0.00 0.00 86 1014.6
20190215064619 54 172 2.0 7.0 0.00 0.00 0.00 86 1014.5
20190215064059 54 134 3.0 9.0 0.00 0.00 0.00 86 1014.5
20190215063556 54 169 3.0 9.0 0.00 0.00 0.00 86 1014.2
20190215063209 54 229 2.0 8.0 0.00 0.00 0.00 86 1014.2
20190215062554 54 205 3.0 8.0 0.00 0.00 0.00 85 1014.2
20190215062059 54 184 4.0 9.0 0.00 0.00 0.00 85 1014.2
20190215061628 54 190 2.0 8.0 0.00 0.00 0.00 85 1014.3
20190215061054 54 213 2.0 8.0 0.00 0.00 0.00 85 1014.5
20190215060555 54 195 1.0 10.0 0.00 0.00 0.00 84 1014.3
20190215060228 54 186 2.0 10.0 0.00 0.00 0.00 84 1014.2
20190215055548 54 218 3.0 11.0 0.00 0.00 0.00 84 1014.3
20190215055050 54 236 3.0 9.0 0.00 0.00 0.00 84 1014.1
20190215054648 54 154 3.0 9.0 0.00 0.00 0.00 83 1014.1
20190215054048 54 171 3.0 9.0 0.00 0.00 0.00 83 1014.2
20190215053550 54 212 3.0 8.0 0.00 0.00 0.00 83 1014.1
20190215053114 54 169 2.0 8.0 0.00 0.00 0.00 83 1014.3
20190215052548 54 146 2.0 9.0 0.00 0.00 0.00 83 1014.3
20190215052052 54 277 3.0 8.0 0.00 0.00 0.00 83 1014.2
20190215051641 54 182 3.0 10.0 0.00 0.00 0.00 82 1014.1
20190215051050 54 227 2.0 9.0 0.00 0.00 0.00 82 1014.2
20190215050550 54 231 3.0 9.0 0.00 0.00 0.00 82 1014.4
20190215050137 53 181 0.0 5.0 0.00 0.00 0.00 82 1014.7
20190215045547 53 160 0.0 0.0 0.00 0.00 0.00 82 1014.5
20190215045046 53 231 0.0 0.0 0.00 0.00 0.00 82 1014.5
20190215044710 53 163 0.0 0.0 0.00 0.00 0.00 82 1014.5
20190215044048 53 171 0.0 0.0 0.00 0.00 0.00 81 1014.5
20190215043545 53 146 0.0 0.0 0.00 0.00 0.00 80 1014.4
20190215043206 53 202 0.0 0.0 0.00 0.00 0.00 80 1014.6
20190215042546 53 200 0.0 0.0 0.00 0.00 0.00 80 1014.7
20190215042045 53 178 0.0 0.0 0.00 0.00 0.00 79 1014.9
20190215041616 53 215 0.0 4.0 0.00 0.00 0.00 78 1014.9
20190215041048 53 156 0.0 6.0 0.00 0.00 0.00 78 1014.8
20190215040547 53 194 2.0 6.0 0.00 0.00 0.00 77 1014.8
20190215040154 54 163 2.0 6.0 0.00 0.00 0.00 77 1014.7
20190215035544 54 240 1.0 6.0 0.00 0.00 0.00 76 1015.0
20190215035045 54 154 2.0 7.0 0.00 0.00 0.00 75 1015.1
20190215034708 54 191 3.0 9.0 0.00 0.00 0.00 75 1014.9
20190215034043 54 208 2.0 9.0 0.00 0.00 0.00 74 1014.8
20190215033543 54 203 0.0 0.0 0.00 0.00 0.00 73 1014.8
20190215033102 54 198 0.0 5.0 0.00 0.00 0.00 73 1014.6
20190215032543 54 203 0.0 5.0 0.00 0.00 0.00 72 1014.7
20190215032043 54 186 0.0 10.0 0.00 0.00 0.00 71 1014.7
20190215031602 55 192 3.0 10.0 0.00 0.00 0.00 70 1014.5
20190215031043 55 229 2.0 8.0 0.00 0.00 0.00 70 1014.5
20190215030546 55 173 2.0 11.0 0.00 0.00 0.00 69 1014.5
20190215030106 55 213 4.0 12.0 0.00 0.00 0.00 69 1014.4
20190215025541 55 184 3.0 12.0 0.00 0.00 0.00 68 1014.3
20190215025041 55 213 2.0 11.0 0.00 0.00 0.00 67 1014.3
20190215024626 55 179 6.0 12.0 0.00 0.00 0.00 67 1014.1
20190215024045 55 225 4.0 12.0 0.00 0.00 0.00 66 1014.1
20190215023542 55 161 4.0 12.0 0.00 0.00 0.00 66 1014.0
20190215023117 56 214 2.0 10.0 0.00 0.00 0.00 65 1014.0
20190215022540 56 197 4.0 11.0 0.00 0.00 0.00 64 1014.0
20190215022040 56 265 1.0 10.0 0.00 0.00 0.00 64 1014.0
20190215021626 56 169 3.0 10.0 0.00 0.00 0.00 63 1014.0
20190215021039 56 160 1.0 11.0 0.00 0.00 0.00 62 1014.1
20190215020539 56 148 3.0 11.0 0.00 0.00 0.00 61 1013.9
20190215020142 56 221 1.0 10.0 0.00 0.00 0.00 61 1013.7
20190215015542 56 150 2.0 10.0 0.00 0.00 0.00 60 1013.6
20190215015039 56 198 2.0 15.0 0.00 0.00 0.00 60 1013.8
20190215014617 56 155 0.0 15.0 0.00 0.00 0.00 59 1013.8
20190215014038 56 196 0.0 11.0 0.00 0.00 0.00 58 1013.9
20190215013538 56 157 1.0 12.0 0.00 0.00 0.00 58 1013.8
20190215013125 56 167 2.0 12.0 0.00 0.00 0.00 57 1013.6
20190215012541 55 135 2.0 10.0 0.00 0.00 0.00 56 1013.7
20190215012041 55 176 0.0 9.0 0.00 0.00 0.00 56 1013.7
20190215011637 55 183 0.0 9.0 0.00 0.00 0.00 55 1013.9
20190215011040 55 127 0.0 9.0 0.00 0.00 0.00 54 1013.7
20190215010535 55 147 0.0 12.0 0.00 0.00 0.00 53 1013.8
20190215010058 55 148 2.0 12.0 0.00 0.00 0.00 52 1013.8
20190215005536 55 181 0.0 8.0 0.00 0.00 0.00 52 1013.8
20190215005037 55 194 0.0 8.0 0.00 0.00 0.00 53 1013.9
20190215004636 55 157 0.0 6.0 0.00 0.00 0.00 53 1013.9
20190215004035 55 142 0.0 6.0 0.00 0.00 0.00 52 1013.9
20190215003534 55 168 0.0 8.0 0.00 0.00 0.00 52 1014.0
20190215003114 55 123 0.0 8.0 0.00 0.00 0.00 52 1013.9
20190215002535 55 141 0.0 3.0 0.00 0.00 0.00 51 1013.7
20190215002034 55 169 0.0 4.0 0.00 0.00 0.00 51 1013.8
20190215001631 55 150 0.0 0.0 0.00 0.00 0.00 50 1013.8
20190215001032 56 140 0.0 0.0 0.00 0.00 0.00 49 1014.0
20190215000533 56 143 0.0 0.0 0.00 0.00 0.00 49 1014.0
20190215000132 56 152 0.0 0.0 0.00 0.00 0.00 50 1013.9
20190214235535 56 174 0.0 0.0 0.00 0.00 0.00 49 1014.0
20190214235033 56 179 0.0 0.0 0.00 0.00 0.00 49 1013.8
20190214234551 56 136 0.0 1.0 0.00 0.00 0.00 49 1013.9
20190214234036 56 212 0.0 1.0 0.00 0.00 0.00 48 1013.9
20190214233534 56 159 0.0 0.0 0.00 0.00 0.00 48 1014.0
20190214233120 57 150 0.0 6.0 0.00 0.00 0.00 47 1014.0
20190214232531 57 157 0.0 6.0 0.00 0.00 0.00 46 1014.1
20190214232036 57 175 0.0 3.0 0.00 0.00 0.00 46 1013.9
20190214231620 58 127 0.0 3.0 0.00 0.00 0.00 44 1013.9
20190214231030 58 157 0.0 0.0 0.00 0.00 0.00 44 1014.0
20190214230532 59 146 0.0 1.0 0.00 0.00 0.00 43 1014.2
20190214230056 59 184 0.0 1.0 0.00 0.00 0.00 43 1014.1
20190214225530 59 140 0.0 6.0 0.00 0.00 0.00 43 1014.1
20190214225029 59 138 0.0 6.0 0.00 0.00 0.00 43 1014.4
20190214224638 59 158 0.0 0.0 0.00 0.00 0.00 44 1014.4
20190214224029 59 168 0.0 0.0 0.00 0.00 0.00 43 1014.3
20190214223529 59 208 0.0 0.0 0.00 0.00 0.00 41 1014.7
20190214223120 59 181 0.0 0.0 0.00 0.00 0.00 42 1014.8
20190214222529 59 153 0.0 0.0 0.00 0.00 0.00 42 1014.6
20190214222029 59 209 0.0 0.0 0.00 0.00 0.00 42 1014.6
20190214221629 59 136 0.0 1.0 0.00 0.00 0.00 41 1014.5
20190214221028 59 156 0.0 1.0 0.00 0.00 0.00 42 1014.6
20190214220531 59 188 0.0 7.0 0.00 0.00 0.00 41 1014.5
20190214220101 59 171 0.0 10.0 0.00 0.00 0.00 42 1014.6
20190214215529 59 145 1.0 10.0 0.00 0.00 0.00 41 1014.3
20190214215026 59 179 0.0 7.0 0.00 0.00 0.00 41 1014.2
20190214214623 59 162 0.0 7.0 0.00 0.00 0.00 41 1014.1
20190214214029 59 222 0.0 6.0 0.00 0.00 0.00 41 1013.9
20190214213525 59 169 0.0 9.0 0.00 0.00 0.00 41 1013.8
20190214213108 59 186 0.0 14.0 0.00 0.00 0.00 40 1013.9
20190214212525 59 159 3.0 14.0 0.00 0.00 0.00 40 1013.7
20190214212025 59 174 1.0 9.0 0.00 0.00 0.00 41 1013.8
20190214211618 59 130 0.0 7.0 0.00 0.00 0.00 40 1013.9
20190214211023 59 143 0.0 12.0 0.00 0.00 0.00 40 1013.8
20190214210523 59 152 3.0 12.0 0.00 0.00 0.00 39 1013.8
20190214210038 59 141 0.0 11.0 0.00 0.00 0.00 40 1014.1
20190214205521 59 173 0.0 7.0 0.00 0.00 0.00 40 1014.2
20190214205019 59 219 0.0 13.0 0.00 0.00 0.00 38 1014.4
20190214204543 59 192 1.0 13.0 0.00 0.00 0.00 38 1014.7
20190214204018 59 199 0.0 10.0 0.00 0.00 0.00 38 1014.9
20190214203516 60 234 2.0 10.0 0.00 0.00 0.00 38 1014.9
20190214203021 60 195 0.0 8.0 0.00 0.00 0.00 38 1015.1
20190214202516 60 147 0.0 9.0 0.00 0.00 0.00 39 1015.2
20190214202015 60 172 0.0 9.0 0.00 0.00 0.00 39 1015.2
20190214201520 60 208 2.0 10.0 0.00 0.00 0.00 40 1015.3
20190214201013 60 142 1.0 10.0 0.00 0.00 0.00 38 1015.3
20190214200513 60 160 1.0 9.0 0.00 0.00 0.00 38 1015.6
20190214200025 60 179 1.0 8.0 0.00 0.00 0.00 38 1015.6
20190214195514 60 174 0.0 14.0 0.00 0.00 0.00 39 1015.5